User: anonymous   Login
Location: Unspecified
(0.0000°N, 0.0000°E)
Time: 11:44:16
(UTC+00:00)
Language:

USA 186 - Orbit

View from above orbital plane
View from above orbital plane
View from above satellite
View from above satellite

Ground track
Ground track

The orbit data is extracted from the following two-line orbital elements,

1 28888U 05042A   16342.76054983 0.00020000  00000-0  82323-4 0    00
2 28888  96.8903  18.6082 0136622 113.6163 246.3835 15.72885855    02
Epoch (UTC): 07 December 2016 18:15:11
Eccentricity: 0.0136622
inclination: 96.8903°
perigee height: 259 km
apogee height: 442 km
right ascension of ascending node: 18.6082°
argument of perigee: 113.6163°
revolutions per day: 15.72885855
mean anomaly at epoch: 246.3835°
orbit number at epoch: 0

The dashed part of the orbit path shows where the satellite is in the earth's shadow,  

DLR